Norfolk, NE

2:40 PM CDT on July 25, 2017 (GMT -0500)
Stefan Memorial

Weather History for KOFK - December, 2012

Change the Weather History Date:

Friday, December 7, 2012

  Actual Average Record
Temperature  
Mean Temperature 31 °F 26 °F  
Max Temperature 37 °F 36 °F 69 °F (1984)
Min Temperature 25 °F 16 °F -13 °F (1908)
Degree Days  
Heating Degree Days 34 39  
Month to date heating degree days 162 266  
Since 1 July heating degree days 1585 1711  
Cooling Degree Days 0 0  
Month to date cooling degree days 0 0  
Year to date cooling degree days 1373 915  
Moisture  
Dew Point 27 °F    
Average Humidity 76    
Maximum Humidity 92    
Minimum Humidity 59    
Precipitation  
Precipitation 0.04 in 0.03 in 1.07 in (1926)
Month to date precipitation 0.04 0.21  
Year to date precipitation 13.41 26.87  
Snow  
Snow 0.50 in 0.20 in - ()
Month to date snowfall 0.5 1.4  
Since 1 July snowfall 0.5 6.3  
Snow Depth 0.00 in    
Sea Level Pressure  
Sea Level Pressure 29.95 in    
Wind  
Wind Speed 5 mph (ENE)    
Max Wind Speed 15 mph    
Max Gust Speed 18 mph    
Visibility 6 miles    
Events Fog , Snow    
T = Trace of Precipitation, MM = Missing Value Source: NWS Daily Summary

Daily Weather History Graph

Daily Weather History Graph

Search for Another Location

Airport or City:

Trip Planner

Search our weather history database for the weather conditions in past years. The results will help you decide how hot, cold, wet, or windy it might be!

Date:

Astronomy

Dec. 07, 2012 Rise Set
Actual Time 7:44 AM CST 4:58 PM CST
Civil Twilight 7:13 AM CST 5:29 PM CST
Nautical Twilight 6:38 AM CST 6:04 PM CST
Astronomical Twilight 6:04 AM CST 6:38 PM CST
Moon 12:59 AM CST (12/7) 1:00 PM CST (12/7)
Length of Visible Light 10h 16m
Length of Day
9h 13m
Last Quarter, 38% of the Moon is Illuminated
Dec 7
Last Quarter
Dec 13
New
Dec 19
First Quarter
Dec 28
Full
Jan 4
Last Quarter

Hourly Weather History & Observations

Time (CST) Temp. Windchill Dew Point Humidity Pressure Visibility Wind Dir Wind Speed Gust Speed Precip Events Conditions
12:56 AM 37.0 °F - 24.1 °F 59% 30.02 in 10.0 mi Calm Calm - N/A   Overcast
1:56 AM 35.1 °F - 25.0 °F 67% 30.00 in 10.0 mi Calm Calm - N/A   Overcast
2:56 AM 33.1 °F - 24.1 °F 70% 30.00 in 10.0 mi Calm Calm - N/A   Overcast
3:56 AM 33.1 °F - 23.0 °F 66% 29.99 in 10.0 mi Calm Calm - N/A   Overcast
4:56 AM 26.1 °F 20.5 °F 19.9 °F 78% 29.96 in 10.0 mi ESE 4.6 mph - N/A   Clear
5:56 AM 28.9 °F 23.9 °F 23.0 °F 78% 29.98 in 10.0 mi WNW 4.6 mph - N/A   Overcast
6:56 AM 30.0 °F 26.5 °F 23.0 °F 75% 29.97 in 10.0 mi ENE 3.5 mph - N/A   Mostly Cloudy
7:56 AM 28.0 °F 20.8 °F 23.0 °F 81% 29.96 in 10.0 mi SE 6.9 mph - N/A   Scattered Clouds
8:56 AM 32.0 °F 27.5 °F 25.0 °F 75% 29.96 in 10.0 mi ESE 4.6 mph - N/A   Scattered Clouds
9:56 AM 33.1 °F 28.7 °F 25.0 °F 72% 29.99 in 10.0 mi NE 4.6 mph - N/A   Overcast
10:56 AM 34.0 °F 29.8 °F 25.0 °F 70% 29.99 in 10.0 mi ENE 4.6 mph - N/A   Overcast
11:56 AM 35.1 °F 32.2 °F 26.1 °F 70% 29.99 in 5.0 mi NE 3.5 mph - 0.00 in Snow Light Snow
12:06 PM 33.8 °F 29.6 °F 26.6 °F 75% 29.94 in 2.5 mi ENE 4.6 mph - 0.00 in Snow Light Snow
12:15 PM 33.8 °F 29.6 °F 28.4 °F 81% 29.93 in 1.5 mi ENE 4.6 mph - 0.00 in Snow Light Snow
12:21 PM 33.8 °F 29.6 °F 28.4 °F 81% 29.93 in 3.0 mi East 4.6 mph - 0.00 in Snow Light Snow
12:34 PM 33.8 °F 28.6 °F 28.4 °F 81% 29.92 in 1.8 mi East 5.8 mph - 0.00 in Snow Light Snow
12:43 PM 32.0 °F 24.8 °F 28.4 °F 87% 29.90 in 0.5 mi East 8.1 mph - 0.02 in Fog , Snow Snow
12:49 PM 30.2 °F 22.6 °F 28.4 °F 93% 29.90 in 0.2 mi ESE 8.1 mph - 0.03 in Fog , Snow Snow
12:56 PM 30.9 °F 22.8 °F 28.9 °F 92% 29.93 in 0.5 mi ESE 9.2 mph - 0.04 in Fog , Snow Snow
1:07 PM 32.0 °F 23.6 °F 28.4 °F 87% 29.89 in 1.8 mi ESE 10.4 mph - 0.00 in Snow Light Snow
1:12 PM 32.0 °F 23.0 °F 28.4 °F 87% 29.88 in 2.5 mi ESE 11.5 mph - 0.00 in Snow Light Snow
1:21 PM 32.0 °F 22.5 °F 28.4 °F 87% 29.88 in 4.0 mi ESE 12.7 mph - 0.00 in   Scattered Clouds
1:30 PM 32.0 °F 24.2 °F 28.4 °F 87% 29.87 in 6.0 mi ESE 9.2 mph - 0.00 in   Scattered Clouds
1:56 PM 32.0 °F 23.0 °F 28.9 °F 88% 29.90 in 8.0 mi ESE 11.5 mph - 0.00 in   Mostly Cloudy
2:16 PM 33.8 °F 25.3 °F 30.2 °F 87% 29.85 in 9.0 mi ESE 11.5 mph - N/A   Mostly Cloudy
2:51 PM 33.8 °F 27.0 °F 30.2 °F 87% 29.86 in 10.0 mi East 8.1 mph - N/A   Mostly Cloudy
2:56 PM 34.0 °F 27.2 °F 30.0 °F 85% 29.90 in 10.0 mi East 8.1 mph - N/A   Mostly Cloudy
3:24 PM 33.8 °F 27.0 °F 30.2 °F 87% 29.86 in 9.0 mi East 8.1 mph - N/A   Scattered Clouds
3:48 PM 33.8 °F 29.6 °F 30.2 °F 87% 29.88 in 10.0 mi NE 4.6 mph - N/A   Mostly Cloudy
3:56 PM 33.1 °F 27.7 °F 28.9 °F 85% 29.93 in 10.0 mi ENE 5.8 mph - N/A   Overcast
4:07 PM 33.8 °F 29.6 °F 28.4 °F 81% 29.89 in 10.0 mi NE 4.6 mph - N/A   Overcast
4:56 PM 32.0 °F 25.6 °F 28.0 °F 85% 29.95 in 6.0 mi East 6.9 mph - N/A   Overcast
5:56 PM 30.0 °F 25.2 °F 28.0 °F 92% 29.95 in 6.0 mi East 4.6 mph - N/A   Clear
6:56 PM 28.9 °F 22.8 °F 27.0 °F 92% 29.98 in 5.0 mi NE 5.8 mph - N/A   Clear
7:03 PM 30.2 °F 24.3 °F 26.6 °F 86% 29.93 in 5.0 mi NE 5.8 mph - N/A   Scattered Clouds
7:14 PM 30.2 °F 22.6 °F 26.6 °F 86% 29.93 in 5.0 mi NNE 8.1 mph - N/A   Mostly Cloudy
7:56 PM 30.0 °F 24.1 °F 28.0 °F 92% 30.00 in 6.0 mi NNE 5.8 mph - N/A   Overcast
8:56 PM 30.9 °F - 28.0 °F 89% 30.00 in 6.0 mi Calm Calm - N/A   Overcast
9:07 PM 30.2 °F 25.4 °F 28.4 °F 93% 29.96 in 6.0 mi NW 4.6 mph - N/A   Overcast
9:47 PM 30.2 °F 21.9 °F 28.4 °F 93% 29.97 in 3.0 mi NNW 9.2 mph - N/A   Overcast
9:56 PM 30.9 °F 22.8 °F 28.0 °F 89% 30.01 in 3.0 mi North 9.2 mph - N/A   Overcast
10:33 PM 30.2 °F 25.4 °F 28.4 °F 93% 29.98 in 3.0 mi NW 4.6 mph - N/A   Overcast
10:56 PM 30.9 °F 25.2 °F 28.0 °F 89% 30.03 in 3.0 mi NNW 5.8 mph - N/A   Overcast
11:56 PM 30.0 °F 23.2 °F 28.0 °F 92% 30.04 in 6.0 mi NNW 6.9 mph - N/A   Overcast